Койташ

Узбекистан     40°12′47″N   67°20′15″E
темп.,
°C
ветер,
м/с
пор.,
м/с
влажн.,
%
обл.,
%
осадки,
мм/ч
давл.,
гПа
погр.,
м
3 марта, ср
ср323:00+4св225872 0.0 102599
02:00+3св2263100 0.0 102486
05:00+2св227299 0.0 102438
08:00+2юв228017 0.0 102481
11:00+8юз46578 0.0 1023906
14:00+10зюз89380 0.0 10201476
17:00+10зюз684023 0.0 10201429
20:00+6св116498 0.0 102123
4 марта, чт
чт423:00+4ююв126278 0.0 102122
02:00+3ю12600 0.0 102022
05:00+3ю12600 0.0 101922
08:00+6ююв226267 0.0 101925
11:00+9ююз8106083 0.1 10181056
14:00+10зюз5106277 1.5 10161036
17:00+10зюз7136388 1.8 10171390
20:00+6ссз2385100 1.1 102263
5 марта, пт
пт523:00+3с239596 1.5 1026159
02:00+3ссз1195100 1.5 1029205
05:00+1ссв3397100 3.9 1031154
08:00−1св3494100 1.6 1031262
11:00+2всв348399 1.6 1029309
14:00+4в456716 0.0 1025513
17:00+5в57678 0.0 1022496
20:00+2в47710 0.0 1022185
6 марта, сб
сб623:00+2в477035 0.0 1020145
02:00+2в5872100 0.0 1016195
05:00+2в4682100 0.0 1014109
08:00+3всв5777100 0.0 1012164
11:00+6юв3462100 0.0 1012442
14:00+6ю1178100 1.4 1012205
17:00+6вюв3485100 2.7 1012167
20:00+5ююз41191100 1.6 1014761
7 марта, вс
вс723:00+3юз162289100 1.7 10171121
02:00+1юз162096100 0.1 10181071
05:00+1зюз121795100 0.2 1019966
08:00+1зюз61195100 0.1 1021738
11:00+1зюз5991100 0.1 1020618
14:00+3зюз3584100 0.0 1019499
17:00+4зюз237894 0.1 1017474
20:00+1юз118942 0.0 101822